Location: Nandig?ma
(16.7717°N, 80.2860°E)
Time: 20:06:48
(UTC+00:00)

CSL-04 Debris - Pass Details

Date: 03 August 2024
Orbit: 822 x 843 km, 98.8° (Epoch: 14 September)

Event Time Altitude Azimuth Distance (km) Brightness Sun altitude
Exits shadow 14:54:14 50° 159° (SSE) 1,033 4.3 -23.8°
Maximum altitude 14:55:40 84° 78° (ENE) 831 4.0 -24.1°
Drops below altitude 10° 15:01:03 10° 349° (N) 2,426 7.1 -25.2°
Sets 15:03:25 0° 349° (N) 3,364 7.9 -25.7°
